KE8BSM Weather Reports


time (UTC)temp
C
wind
direction
speed
KPH
gust
KPH
rain 1hr
cm
rain 24hr
cm
rain mn
cm
humidity
%
barometer
mb
20260509085823 10 174 3.2 4.8 0.00 0.00 0.00 88 1003.1
20260509084817 10 191 1.6 4.8 0.00 0.00 0.00 88 1003.1
20260509083818 10 171 0.0 3.2 0.00 0.00 0.00 87 1003.2
20260509082818 10 199 0.0 1.6 0.00 0.00 0.00 86 1003.3
20260509081818 10 171 3.2 4.8 0.00 0.00 0.00 85 1003.5
20260509080815 10 176 3.2 4.8 0.00 0.00 0.00 84 1003.7
20260509075815 10 92 0.0 1.6 0.00 0.00 0.00 83 1003.7
20260509074815 10 166 1.6 3.2 0.00 0.00 0.00 82 1003.6
20260509073816 10 166 1.6 3.2 0.00 0.00 0.00 80 1003.8
20260509072816 10 232 4.8 8.0 0.00 0.00 0.00 79 1003.9
20260509071836 11 188 1.6 3.2 0.00 0.00 0.00 77 1004.1
20260509070816 11 175 1.6 4.8 0.00 0.00 0.00 75 1004.3
20260509065816 11 198 1.6 3.2 0.00 0.00 0.00 73 1004.5
20260509064837 11 189 1.6 3.2 0.00 0.00 0.00 70 1004.4
20260509063816 11 211 1.6 3.2 0.00 0.00 0.00 65 1004.4
20260509062817 11 200 0.0 3.2 0.00 0.00 0.00 59 1004.5
20260509061817 11 202 1.6 3.2 0.00 0.00 0.00 55 1004.7
20260509060817 11 213 0.0 3.2 0.00 0.00 0.00 52 1004.7
20260509055817 11 0.0 0.0 0.00 0.00 0.00 46 1004.7
20260509054817 11 0.0 0.0 0.00 0.00 0.00 45 1004.8
20260509053837 11 186 1.6 3.2 0.00 0.00 0.00 44 1004.9
20260509052838 11 192 0.0 1.6 0.00 0.00 0.00 43 1005.0
20260509051818 11 177 4.8 6.4 0.00 0.00 0.00 44 1004.8
20260509050815 11 176 1.6 4.8 0.00 0.00 0.00 44 1004.8
20260509045818 10 173 0.0 3.2 0.00 0.00 0.00 46 1004.9
20260509044835 10 135 1.6 3.2 0.00 0.00 0.00 49 1005.0
20260509043815 10 0.0 0.0 0.00 0.00 0.00 50 1005.1
20260509042835 10 0.0 0.0 0.00 0.00 0.00 50 1005.1
20260509041816 10 0.0 0.0 0.00 0.00 0.00 50 1005.2
20260509040836 10 0.0 0.0 0.00 0.00 0.00 51 1005.3
20260509035816 10 138 0.0 3.2 0.00 0.00 0.00 48 1005.4
20260509034816 10 0.0 0.0 0.00 0.00 0.00 48 1005.6
20260509033816 10 139 0.0 3.2 0.00 0.00 0.00 49 1005.7
20260509032816 10 0.0 0.0 0.00 0.00 0.00 49 1005.7
20260509031816 10 0.0 0.0 0.00 0.00 0.00 48 1005.8
20260509030837 10 0.0 0.0 0.00 0.00 0.00 47 1005.9
20260509025817 10 0.0 0.0 0.00 0.00 0.00 47 1006.0
20260509024817 10 127 0.0 1.6 0.00 0.00 0.00 46 1006.1
20260509023817 10 0.0 0.0 0.00 0.00 0.00 45 1006.2
20260509022817 11 137 0.0 1.6 0.00 0.00 0.00 50 1006.4
20260509021817 11 208 0.0 1.6 0.00 0.00 0.00 45 1006.4
20260509020818 11 0.0 0.0 0.00 0.00 0.00 48 1006.4
20260509015838 11 0.0 0.0 0.00 0.00 0.00 45 1006.3
20260509014818 11 0.0 0.0 0.00 0.00 0.00 42 1006.2
20260509013818 12 0.0 0.0 0.00 0.00 0.00 45 1006.2
20260509012815 12 0.0 0.0 0.00 0.00 0.00 41 1006.2
20260509011815 12 0.0 0.0 0.00 0.00 0.00 42 1006.1
20260509010816 13 0.0 0.0 0.00 0.00 0.00 37 1006.1
20260509005816 13 0.0 0.0 0.00 0.00 0.00 38 1006.1
20260509004816 13 0.0 0.0 0.00 0.00 0.00 39 1006.2
20260509003816 14 0.0 0.0 0.00 0.00 0.00 36 1006.2
20260509002816 15 0.0 0.0 0.00 0.00 0.00 35 1006.2
20260509001816 15 0.0 0.0 0.00 0.00 0.00 33 1006.2
20260509000816 15 0.0 0.0 0.00 0.00 0.00 29 1006.3
20260508235837 15 20 1.6 3.2 0.00 0.00 0.00 30 1006.5
20260508234837 16 240 0.0 1.6 0.00 0.00 0.00 29 1006.6
20260508233815 16 227 0.0 3.2 0.00 0.00 0.00 27 1006.7
20260508232816 16 88 1.6 3.2 0.00 0.00 0.00 30 1006.8
20260508231816 16 241 0.0 3.2 0.00 0.00 0.00 27 1006.9
20260508230816 16 210 1.6 3.2 0.00 0.00 0.00 31 1007.0
20260508225816 17 32 4.8 6.4 0.00 0.00 0.00 28 1006.9
20260508224815 17 198 3.2 6.4 0.00 0.00 0.00 31 1006.9
20260508223815 17 14 6.4 11.3 0.00 0.00 0.00 32 1006.9
20260508222835 17 296 3.2 9.7 0.00 0.00 0.00 29 1007.0
20260508221815 17 219 3.2 4.8 0.00 0.00 0.00 28 1007.0
20260508220815 17 295 3.2 6.4 0.00 0.00 0.00 30 1007.1
20260508215815 17 198 4.8 6.4 0.00 0.00 0.00 28 1007.0
20260508214816 16 267 3.2 4.8 0.00 0.00 0.00 30 1007.0
20260508213856 17 44 4.8 11.3 0.00 0.00 0.00 29 1007.0
20260508212816 17 345 6.4 8.0 0.00 0.00 0.00 30 1007.1
20260508211816 17 27 3.2 6.4 0.00 0.00 0.00 30 1007.2
20260508210816 16 197 3.2 6.4 0.00 0.00 0.00 29 1007.2
20260508205817 16 242 3.2 4.8 0.00 0.00 0.00 29 1007.2
20260508204817 16 19 3.2 6.4 0.00 0.00 0.00 30 1007.4
20260508203817 16 208 4.8 9.7 0.00 0.00 0.00 29 1007.4
20260508202817 16 105 3.2 8.0 0.00 0.00 0.00 30 1007.6
20260508201817 16 11 4.8 8.0 0.00 0.00 0.00 30 1007.7
20260508200818 16 165 4.8 8.0 0.00 0.00 0.00 32 1007.8
20260508195837 16 223 3.2 8.0 0.00 0.00 0.00 30 1008.0
20260508194815 16 269 3.2 6.4 0.00 0.00 0.00 31 1008.1
20260508193815 16 222 4.8 4.8 0.00 0.00 0.00 31 1008.1
20260508192815 15 127 6.4 11.3 0.00 0.00 0.00 33 1008.3
20260508191816 15 4 3.2 6.4 0.00 0.00 0.00 31 1008.4
20260508190816 15 358 4.8 12.9 0.00 0.00 0.00 32 1008.4
20260508185816 15 232 3.2 4.8 0.00 0.00 0.00 31 1008.5
20260508184816 15 196 3.2 4.8 0.00 0.00 0.00 29 1008.5
20260508183816 16 27 6.4 14.5 0.00 0.00 0.00 29 1008.6
20260508182816 15 225 4.8 6.4 0.00 0.00 0.00 29 1008.7
20260508181816 15 25 1.6 4.8 0.00 0.00 0.00 28 1008.7
20260508180816 15 285 1.6 4.8 0.00 0.00 0.00 29 1008.8
20260508175817 15 3 3.2 6.4 0.00 0.00 0.00 29 1008.9
20260508174837 15 98 3.2 6.4 0.00 0.00 0.00 30 1009.0
20260508173817 15 19 6.4 9.7 0.00 0.00 0.00 31 1009.2
20260508172857 15 197 8.0 11.3 0.00 0.00 0.00 30 1009.4
20260508171838 15 208 3.2 9.7 0.00 0.00 0.00 32 1009.5
20260508170817 15 218 6.4 11.3 0.00 0.00 0.00 31 1009.6
20260508165817 15 30 4.8 6.4 0.00 0.00 0.00 33 1009.8
20260508164818 14 284 3.2 6.4 0.00 0.00 0.00 33 1010.0
20260508163818 14 160 4.8 6.4 0.00 0.00 0.00 34 1010.2
20260508162815 13 339 6.4 9.7 0.00 0.00 0.00 40 1010.3
20260508161838 13 40 1.6 3.2 0.00 0.00 0.00 39 1010.3
20260508160858 13 0.0 0.0 0.00 0.00 0.00 38 1010.4
20260508155816 13 223 3.2 8.0 0.00 0.00 0.00 41 1010.5
20260508154816 13 238 6.4 9.7 0.00 0.00 0.00 41 1010.4
20260508153836 13 216 3.2 6.4 0.00 0.00 0.00 46 1010.5
20260508152816 13 319 0.0 3.2 0.00 0.00 0.00 44 1010.6
20260508151816 12 180 4.8 6.4 0.00 0.00 0.00 45 1010.7
20260508150816 12 239 3.2 6.4 0.00 0.00 0.00 52 1010.8
20260508145817 12 341 1.6 6.4 0.00 0.00 0.00 53 1010.9
20260508144817 12 300 6.4 8.0 0.00 0.00 0.00 49 1011.0
20260508143824 12 179 1.6 3.2 0.00 0.00 0.00 63 1011.0
20260508142825 11 211 4.8 6.4 0.00 0.00 0.00 61 1011.1
20260508141825 11 300 4.8 6.4 0.00 0.00 0.00 66 1011.1
20260508140825 11 219 3.2 6.4 0.00 0.00 0.00 69 1011.2
20260508135825 11 182 1.6 3.2 0.00 0.00 0.00 69 1011.3
20260508134845 10 225 1.6 1.6 0.00 0.00 0.00 70 1011.2
20260508133825 10 343 1.6 3.2 0.00 0.00 0.00 71 1011.3
20260508132825 10 261 1.6 3.2 0.00 0.00 0.00 75 1011.3
20260508131825 9 169 1.6 3.2 0.00 0.00 0.00 74 1011.4
20260508130826 8 255 3.2 3.2 0.00 0.00 0.00 75 1011.5
20260508125826 8 214 1.6 3.2 0.00 0.00 0.00 78 1011.5
20260508124826 7 167 3.2 3.2 0.00 0.00 0.00 77 1011.6
20260508123826 7 227 1.6 1.6 0.00 0.00 0.00 78 1011.7
20260508122826 6 173 0.0 0.0 0.00 0.00 0.00 80 1011.6
20260508121826 5 0.0 0.0 0.00 0.00 0.00 82 1011.5
20260508120827 5 0.0 0.0 0.00 0.00 0.00 85 1011.4
20260508115827 4 0.0 0.0 0.00 0.00 0.00 88 1011.3
20260508114827 3 0.0 0.0 0.00 0.00 0.00 90 1011.2
20260508113827 3 0.0 0.0 0.00 0.00 0.00 94 1011.1
20260508112827 2 0.0 0.0 0.00 0.00 0.00 92 1011.0
20260508111827 2 0.0 0.0 0.00 0.00 0.00 94 1011.0
20260508110828 2 0.0 0.0 0.00 0.00 0.00 95 1011.0
20260508105828 2 0.0 0.0 0.00 0.00 0.00 94 1011.0
20260508104828 2 0.0 0.0 0.00 0.00 0.00 93 1010.9
20260508103828 2 0.0 0.0 0.00 0.00 0.00 92 1010.8
20260508102848 2 0.0 0.0 0.00 0.00 0.00 94 1010.7
20260508101828 2 0.0 0.0 0.00 0.00 0.00 95 1010.7
20260508100829 2 0.0 0.0 0.00 0.00 0.00 94 1010.9
20260508095829 2 0.0 0.0 0.00 0.00 0.00 95 1010.9
20260508094815 2 0.0 0.0 0.00 0.00 0.00 93 1010.9
20260508093816 2 0.0 0.0 0.00 0.00 0.00 93 1010.9
20260508092816 3 0.0 0.0 0.00 0.00 0.00 94 1011.1
20260508091816 3 260 0.0 0.0 0.00 0.00 0.00 95 1011.1
20260508090816 3 267 1.6 1.6 0.00 0.00 0.00 92 1011.1